date,batt_volt,AirTemp_C,Solar_kW,RH,Manual_BP,StationID,WS_ms,PTemp,WS_15min_max,Prog_Sig,Solar_Raw,Bar_mbar,Solar_MJ,Max_WS_2min,Pressure_Raw,Rain_mm,WD_15min_ave,Max_AirTemp_1min,WindDir,WS_15min_med,WS_15min_ave,Elevation_Correction
2017-09-01T00:13:37Z,12.91169,15.51788,0.0,90.92746,0,1156,1.6856,18.50756,,43690,0.0,1003.848,0.0,1.882,1002.047,0,,15.55,287.4848,,,1.80078
2017-09-01T00:28:36Z,12.90618,15.68719,0.0,89.77655,0,1156,2.3128,18.40363,,43690,0.0,1003.848,0.0,3.842,1002.047,0,,15.75,304.5981,,,1.80078
2017-09-01T00:43:35Z,12.90618,16.39809,0.0,76.9465,0,1156,4.5276,18.35393,,43690,0.0,1003.848,0.0,5.449,1002.047,0,,16.43,310.9914,,,1.80078
2017-09-01T00:58:39Z,12.90066,16.19498,0.0,75.96478,0,1156,2.9204,18.27711,,43690,0.0,1003.848,0.0,4.939,1002.047,0,,16.43,289.7443,,,1.80078
2017-09-01T01:13:37Z,12.90066,15.61948,0.0,77.7928,0,1156,4.1748,18.01956,,43690,0.0,1004.184,0.0,5.194,1002.383,0,,15.82,288.2782,,,1.80078
2017-09-01T01:28:41Z,12.91169,16.22883,0.0,70.20987,0,1156,3.1752,17.76652,,43690,0.0,1004.184,0.0,4.547,1002.383,0,,16.3,331.3733,,,1.80078
2017-09-01T01:43:40Z,12.91169,15.72104,0.0,73.39199,0,1156,2.4108,17.68971,,43690,0.0,1004.184,0.0,3.802,1002.383,0,,15.79,316.1109,,,1.80078
2017-09-01T01:58:39Z,12.91169,15.21326,0.0,74.57683,0,1156,3.4496,17.38697,,43690,0.0,1004.184,0.0,4.586,1002.383,0,,15.38,317.7213,,,1.80078
2017-09-01T02:13:43Z,12.9172,15.14555,0.0,73.39199,0,1156,2.8616,17.06163,,43690,0.0,1004.671,0.0,4.038,1002.871,0,,15.21,332.2626,,,1.80078
2017-09-01T02:28:42Z,12.92272,14.73932,0.0,73.96748,0,1156,2.8812,16.7363,,43690,0.0,1004.671,0.0,3.116,1002.871,0,,14.77,312.7941,,,1.80078
2017-09-01T02:43:40Z,12.92823,14.67162,0.0,74.27215,0,1156,2.5284,16.41324,,43690,0.0,1004.671,0.0,3.685,1002.871,0,,14.81,337.2619,,,1.80078
2017-09-01T02:58:43Z,12.93488,14.16724,0.0,76.91747,0,1156,3.8024,16.09242,,43690,0.0,1004.671,0.0,4.018,1002.871,0,,14.2,310.7946,,,1.80078
2017-09-01T03:13:42Z,12.93741,14.24869,0.0,71.82364,0,1156,2.0384,15.74901,,43690,0.0,1004.226,0.0,3.175,1002.425,0,,14.42,286.2055,,,1.80078
2017-09-01T03:28:46Z,12.95464,13.97892,0.0,71.99447,0,1156,1.5484,15.45757,,43690,0.0,1004.226,0.0,2.96,1002.425,0,,14.15,281.8837,,,1.80078
2017-09-01T03:43:44Z,12.95467,13.97901,0.0,74.39892,0,1156,2.7636,15.19098,,43690,0.0,1004.226,0.0,3.156,1002.425,0,,13.91,303.0664,,,1.80078
2017-09-01T03:58:43Z,12.95467,13.234,0.0,80.42669,0,1156,2.7244,14.92439,,43690,0.0,1004.226,0.0,2.568,1002.425,0,,13.34,266.9533,,,1.80078
2017-09-01T04:13:45Z,12.96019,13.30173,0.0,80.25737,0,1156,2.45,14.6352,,43690,0.0,1004.517,0.0,2.626,1002.716,0,,13.47,312.9963,,,1.80078
2017-09-01T04:28:48Z,12.9657,13.53878,0.0,78.42872,0,1156,4.5864,14.44317,,43690,0.0,1004.517,0.0,4.528,1002.716,0,,13.74,310.7843,,,1.80078
2017-09-01T04:43:50Z,12.95467,13.53878,0.0,79.81714,0,1156,4.7628,14.34828,,43690,0.0,1004.517,0.0,7.860001,1002.716,0,,13.64,315.9055,,,1.80078
2017-09-01T04:58:48Z,12.96019,13.30173,0.0,78.19167,0,1156,3.7044,14.34828,,43690,0.0,1004.517,0.0,4.586,1002.716,0,,13.37,317.9252,,,1.80078
2017-09-01T05:13:46Z,12.94916,12.82764,0.0,76.80326,0,1156,2.5088,14.30083,,43690,0.0,1004.761,0.0,4.371,1002.96,0,,12.96,319.8005,,,1.80078
2017-09-01T05:28:49Z,12.9657,12.62445,0.0,77.14189,0,1156,2.7832,14.1585,,43690,0.0,1004.761,0.0,4.371,1002.96,0,,12.62,315.9296,,,1.80078
2017-09-01T05:43:47Z,12.97122,12.11649,0.0,79.27531,0,1156,1.5876,13.96647,,43690,0.0,1004.761,0.0,3.293,1002.96,0,,12.18,308.1876,,,1.80078
2017-09-01T05:58:49Z,12.9783,12.01927,0.0,79.38357,0,1156,1.372,13.70665,,43690,0.0,1004.761,0.0,3.606,1002.96,0,,12.09,311.8683,,,1.80078
2017-09-01T06:13:51Z,12.97969,11.75492,0.0,79.66464,0,1156,2.94,13.49428,,43690,0.0,1005.624,0.0,3.724,1003.823,0,,11.89,312.0042,,,1.80078
2017-09-01T06:28:48Z,12.99188,11.48967,0.0,79.53798,0,1156,1.9208,13.18702,,43690,0.0,1005.624,0.0,4.136,1003.823,0,,11.62,282.6484,,,1.80078
2017-09-01T06:43:50Z,12.99215,11.55825,0.0,78.01488,0,1156,3.2536,12.95432,,43690,0.0,1005.624,0.0,4.861,1003.823,0,,11.59,313.5111,,,1.80078
2017-09-01T06:58:53Z,12.99216,11.32112,0.0,78.96338,0,1156,3.2536,12.78939,,43690,0.0,1005.624,0.0,3.763,1003.823,0,,11.32,289.171,,,1.80078
2017-09-01T07:13:50Z,12.99767,11.52437,0.0,78.01488,0,1156,1.6464,12.65158,,43690,0.0,1006.15,0.0,3.92,1004.349,0,,11.59,296.1459,,,1.80078
2017-09-01T07:28:53Z,12.99767,11.28725,0.0,80.89428,0,1156,2.6264,12.5341,,43690,0.0,1006.15,0.0,3.606,1004.349,0,,11.39,301.6537,,,1.80078
2017-09-01T07:43:51Z,13.00319,11.45662,0.0,79.9119,0,1156,3.1948,12.37143,,43690,0.0,1006.15,0.0,4.214,1004.349,0,,11.56,292.442,,,1.80078
2017-09-01T07:58:52Z,13.00871,11.45662,0.0,80.55553,0,1156,2.7832,12.23362,,43690,0.0,1006.15,0.0,4.39,1004.349,0,,11.49,298.9599,,,1.80078
2017-09-01T08:13:55Z,13.01422,11.32112,0.0,79.9119,0,1156,1.6072,12.14099,,43690,0.0,1005.5,0.0,3.41,1003.699,0,,11.52,314.9782,,,1.80078
2017-09-01T08:28:52Z,13.01422,11.25337,0.0,81.09754,0,1156,1.5876,12.09355,,43690,0.0,1005.5,0.0,2.724,1003.699,0,,11.25,331.4775,,,1.80078
2017-09-01T08:43:55Z,13.01422,11.42275,0.0,81.57178,0,1156,3.3516,12.07095,,43690,0.0,1005.5,0.0,5.566,1003.699,0,,11.49,316.1808,,,1.80078
2017-09-01T08:58:52Z,13.00871,11.4905,0.0,82.14766,0,1156,3.1948,12.16358,,43690,0.0,1005.5,0.0,4.116,1003.699,0,,11.42,316.5897,,,1.80078
2017-09-01T09:13:55Z,12.99767,11.21949,0.0,84.24794,0,1156,3.8808,12.25621,,43690,0.0,1005.581,0.0,4.214,1003.78,0,,11.25,273.8983,,,1.80078
2017-09-01T09:28:58Z,13.00319,11.59213,0.001928051,83.36718,0,1156,6.1936,12.32624,,43690,0.1349635,1005.581,9.640253e-06,7.468001,1003.78,0,,11.76,289.652,,,1.80078
2017-09-01T09:43:56Z,13.00319,11.42275,0.005302139,83.16394,0,1156,3.6848,12.3014,,43690,0.3711498,1005.581,2.65107e-05,6.546,1003.78,0,,11.56,291.8407,,,1.80078
2017-09-01T09:58:59Z,13.00319,11.45662,0.01253233,83.50269,0,1156,3.7632,12.25621,,43690,0.877263,1005.581,6.266164e-05,5.527,1003.78,0,,11.66,291.8407,,,1.80078
2017-09-01T10:13:56Z,12.99216,11.55825,0.0342229,84.48507,0,1156,5.8604,12.39402,,43690,2.395603,1006.476,0.0001711145,4.586,1004.675,0,,11.66,283.3986,,,1.80078
2017-09-01T10:28:59Z,12.98112,11.96475,0.08290618,82.75742,0,1156,1.7444,12.62673,,43690,5.803432,1006.476,0.0004145309,7.605001,1004.675,0,,11.96,317.5998,,,1.80078
2017-09-01T10:43:57Z,12.95906,11.96475,0.0419351,80.75878,0,1156,3.6848,13.04695,,43690,2.935457,1006.476,0.0002096755,3.861,1004.675,0,,12.1,313.968,,,1.80078
2017-09-01T10:59:00Z,12.94802,11.69375,0.1436398,81.9783,0,1156,2.8616,13.3768,,43690,10.05478,1006.476,0.0007181988,4.234,1004.675,0,,11.76,323.7089,,,1.80078
2017-09-01T11:13:59Z,12.94653,13.17706,0.259792,78.78335,0,1156,4.9196,14.03876,,43690,18.18544,1006.882,0.00129896,7.291,1005.081,0,,13.11,275.0155,,,1.80078
2017-09-01T11:29:02Z,12.93279,13.30217,0.3416363,75.61865,0,1156,6.5464,15.09383,,43690,23.91454,1006.882,0.001708181,7.526001,1005.081,0,,13.34,284.0023,,,1.80078
2017-09-01T11:44:00Z,12.92159,13.94517,0.392708,74.50054,0,1156,5.0176,16.06757,,43690,27.48956,1006.882,0.00196354,6.938,1005.081,0,,14.08,281.2351,,,1.80078
2017-09-01T11:59:03Z,12.90128,13.86222,0.4162522,74.44564,0,1156,7.1932,16.91027,,43690,29.13766,1006.882,0.002081261,7.036,1005.081,0,,13.93,290.5299,,,1.80078
2017-09-01T12:14:06Z,12.89517,14.43475,0.5602077,72.71507,0,1156,5.488,17.58804,,43690,39.21454,1006.807,0.002801038,7.428001,1005.006,0,,14.4,282.5583,,,1.80078
2017-09-01T12:29:04Z,12.88413,13.85918,0.2018272,74.71226,0,1156,5.8996,18.17319,,43690,14.1279,1006.807,0.001009136,6.546,1005.006,0,,13.96,286.3315,,,1.80078
2017-09-01T12:44:03Z,12.8731,15.01017,0.5582762,72.00407,0,1156,6.487599,18.921,,43690,39.07933,1006.807,0.002791381,7.781,1005.006,0,,14.87,278.5681,,,1.80078
2017-09-01T12:59:07Z,12.85482,15.37375,0.5929577,68.03254,0,1156,6.174,19.73207,,43690,41.50704,1006.807,0.002964788,6.684,1005.006,0,,15.44,262.9996,,,1.80078
2017-09-01T13:14:05Z,12.83594,15.70396,0.6365986,69.54534,0,1156,7.8008,20.52958,,43690,44.5619,1007.028,0.003182993,7.546001,1005.227,0,,15.81,278.843,,,1.80078
2017-09-01T13:29:09Z,12.82466,15.83762,0.6770252,69.0356,0,1156,8.7024,21.28643,,43690,47.39176,1007.028,0.003385126,9.13,1005.227,0,,16.11,271.5542,,,1.80078
2017-09-01T13:44:07Z,12.81852,15.96916,0.7266218,69.70766,0,1156,8.5848,21.97325,,43690,50.86352,1007.028,0.003633109,9.349999,1005.227,0,,16.11,272.6649,,,1.80078
2017-09-01T13:59:10Z,12.80965,16.39579,0.7439438,69.11614,0,1156,8.5456,22.55839,,43690,52.07606,1007.028,0.003719719,8.74,1005.227,0,,16.29,279.2062,,,1.80078
2017-09-01T14:14:08Z,12.8038,16.42766,0.7713178,69.82416,0,1156,7.3304,23.01024,,43690,53.99224,1007.103,0.003856589,9.13,1005.303,0,,16.46,283.3998,,,1.80078
2017-09-01T14:29:07Z,12.79828,16.59676,0.8179132,67.38838,0,1156,9.0552,23.41013,,43690,57.25392,1007.103,0.004089566,10.33,1005.303,0,,16.9,260.2693,,,1.80078
2017-09-01T14:44:06Z,12.78726,16.59676,0.8294025,68.40326,0,1156,9.1924,23.75354,,43690,58.05818,1007.103,0.004147012,10.04,1005.303,0,,16.73,256.2341,,,1.80078
2017-09-01T14:59:10Z,12.77624,17.13803,1.097027,66.57647,0,1156,10.2704,24.07209,,43690,76.79187,1007.103,0.005485134,10.31,1005.303,0,,17.14,267.9794,,,1.80078
2017-09-01T15:14:08Z,12.78726,16.52911,0.885708,71.95536,0,1156,10.6036,24.13083,,43690,61.99956,1006.199,0.00442854,11.49,1004.398,0,,16.39,266.0819,,,1.80078
2017-09-01T15:29:11Z,12.79277,16.73208,0.8852266,73.27471,0,1156,9.8588,24.16021,,43690,61.96587,1006.199,0.004426133,10.74,1004.398,0,,16.7,254.7209,,,1.80078
2017-09-01T15:44:09Z,12.78726,16.79974,0.9222917,68.50475,0,1156,10.192,24.24831,,43690,64.56042,1006.199,0.004611458,11.49,1004.398,0,,16.94,265.7697,,,1.80078
2017-09-01T15:59:09Z,12.78726,17.51016,1.04167,67.62518,0,1156,9.4864,24.45165,,43690,72.91688,1006.199,0.005208348,11.27,1004.398,0,,17.48,250.5897,,,1.80078
2017-09-01T16:14:13Z,12.78726,14.97295,0.3451373,73.1394,0,1156,10.7604,24.21894,,43690,24.15961,1006.118,0.001725687,12.29,1004.317,0,,15.31,253.568,,,1.80078
2017-09-01T16:29:12Z,12.8093,16.66443,0.8881149,67.28689,0,1156,12.3088,23.46661,,43690,62.16804,1006.118,0.004440574,11.45,1004.317,0,,17.0,252.223,,,1.80078
2017-09-01T16:44:09Z,12.8093,17.03655,0.8819868,66.17052,0,1156,8.918,23.1232,,43690,61.73908,1006.118,0.004409934,11.92,1004.317,0,,17.41,259.0203,,,1.80078
2017-09-01T16:59:13Z,12.8093,17.00272,0.8728115,66.67796,0,1156,11.5248,23.06672,,43690,61.0968,1006.118,0.004364058,12.17,1004.317,0,,16.9,261.6864,,,1.80078
2017-09-01T17:14:11Z,12.79828,16.90123,0.859788,67.21923,0,1156,13.0732,23.23843,,43690,60.18516,1006.767,0.00429894,12.88,1004.966,0,,17.07,268.7,,,1.80078
2017-09-01T17:29:14Z,12.80379,16.96889,0.8400573,64.34372,0,1156,12.544,23.35139,,43690,58.80401,1006.767,0.004200287,13.21,1004.966,0,,17.14,251.4544,,,1.80078
2017-09-01T17:44:13Z,12.79828,17.40867,0.841906,65.76456,0,1156,9.956799,23.58184,,43690,58.93342,1006.767,0.00420953,12.74,1004.966,0,,17.41,260.3414,,,1.80078
2017-09-01T17:59:12Z,12.78726,16.83357,0.8120595,65.86605,0,1156,12.8184,23.78291,,43690,56.84416,1006.767,0.004060298,13.8,1004.966,0,,16.97,265.7697,,,1.80078
2017-09-01T18:14:10Z,12.77624,17.27335,0.7826964,66.74561,0,1156,13.426,23.98624,,43690,54.78874,1006.523,0.003913482,12.9,1004.723,0,,17.37,261.7825,,,1.80078
2017-09-01T18:29:13Z,12.78726,17.03655,0.7456314,66.50881,0,1156,11.5444,24.07209,,43690,52.1942,1006.523,0.003728157,13.82,1004.723,0,,17.04,267.1387,,,1.80078
2017-09-01T18:44:16Z,12.79277,16.66443,0.7076038,67.72667,0,1156,9.721599,24.10146,,43690,49.53226,1006.523,0.003538018,13.45,1004.723,0,,16.94,268.6759,,,1.80078
2017-09-01T18:59:14Z,12.79277,16.96889,0.6758338,67.5237,0,1156,11.7796,23.98624,,43690,47.30836,1006.523,0.003379169,13.76,1004.723,0,,16.94,282.8471,,,1.80078
2017-09-01T19:14:13Z,12.79828,16.52911,0.6613929,65.08797,0,1156,15.0528,23.69706,,43690,46.2975,1006.28,0.003306964,15.48,1004.479,0,,16.6,290.1729,,,1.80078
2017-09-01T19:29:17Z,12.8093,15.41273,0.2661974,72.59812,0,1156,13.0928,23.29491,,43690,18.63382,1006.28,0.001330987,15.11,1004.479,0,,15.78,278.7399,,,1.80078
2017-09-01T19:44:15Z,12.82583,14.26253,0.31438,73.54535,0,1156,11.5836,22.19465,,43690,22.0066,1006.28,0.0015719,17.46,1004.479,0,,14.16,274.9449,,,1.80078
2017-09-01T19:59:18Z,12.84543,13.80034,0.164199,68.82382,0,1156,13.2104,21.25933,,43690,11.49393,1006.28,0.000820995,15.6,1004.479,0,,14.1,282.6909,,,1.80078
2017-09-01T20:14:16Z,12.85769,14.07764,0.2624312,66.90331,0,1156,11.3092,20.34207,,43690,18.37019,1006.643,0.001312156,13.48,1004.843,0,,14.31,287.0744,,,1.80078
2017-09-01T20:29:20Z,12.85772,13.63788,0.1208686,72.35192,0,1156,13.034,19.91733,,43690,8.4608,1006.643,0.0006043428,15.15,1004.843,0,,13.84,272.7552,,,1.80078
2017-09-01T20:44:17Z,12.86473,13.40879,0.08140105,73.98708,0,1156,13.1908,19.3367,,43690,5.698073,1006.643,0.0004070052,13.52,1004.843,0,,13.54,265.4657,,,1.80078
2017-09-01T20:59:21Z,12.88275,11.68764,0.05780243,75.0097,0,1156,7.310799,18.66119,,43690,4.04617,1006.643,0.0002890121,9.269999,1004.843,0,,12.23,307.1884,,,1.80078
2017-09-01T21:14:20Z,12.91165,10.71072,0.131019,86.52643,0,1156,4.3904,17.28756,,43690,9.17133,1008.044,0.000655095,5.39,1006.243,0,,10.81,312.3123,,,1.80078
2017-09-01T21:29:24Z,12.92823,11.15097,0.08237686,87.00066,0,1156,5.3704,16.31608,,43690,5.766381,1008.044,0.0004118843,8.309999,1006.243,0,,11.22,300.44,,,1.80078
2017-09-01T21:44:22Z,12.92652,11.6064,0.06793398,82.25194,0,1156,6.1152,15.72642,,43690,4.755379,1008.044,0.0003396699,7.330001,1006.243,0,,11.74,292.379,,,1.80078
2017-09-01T21:59:25Z,12.9326,12.01485,0.140218,80.42661,0,1156,6.7032,15.43272,,43690,9.81526,1008.044,0.0007010899,8.599999,1006.243,0,,12.01,283.7352,,,1.80078
2017-09-01T22:14:23Z,12.93261,11.87945,0.05348536,78.2594,0,1156,4.2728,15.28813,,43690,3.743975,1007.849,0.0002674268,8.86,1006.048,0,,11.95,294.1223,,,1.80078
2017-09-01T22:29:22Z,12.94364,11.77786,0.01686475,76.46462,0,1156,5.6056,15.16613,,43690,1.180533,1007.849,8.432376e-05,8.309999,1006.048,0,,11.78,289.1934,,,1.80078
2017-09-01T22:44:26Z,12.94916,11.77786,0.005300351,76.93871,0,1156,9.5844,15.02153,,43690,0.3710246,1007.849,2.650175e-05,10.25,1006.048,0,,11.95,290.3715,,,1.80078
2017-09-01T22:59:25Z,12.95467,11.84558,0.0009637001,75.85506,0,1156,8.8396,14.85209,,43690,0.06745901,1007.849,4.818501e-06,9.939999,1006.048,0,,12.01,280.658,,,1.80078
2017-09-01T23:14:28Z,12.95467,11.98104,0.0,74.80528,0,1156,9.623599,14.7798,,43690,0.0,1008.58,0.0,11.9,1006.78,0,,12.01,287.5584,,,1.80078
2017-09-01T23:29:27Z,12.98225,11.71013,0.0,75.07619,0,1156,5.7036,14.6352,,43690,0.0,1008.58,0.0,11.49,1006.78,0,,11.78,328.3119,,,1.80078
2017-09-01T23:44:31Z,12.98776,11.2699,0.0,72.638,0,1156,4.9588,14.46801,,43690,0.0,1008.58,0.0,10.39,1006.78,0,,11.47,300.2292,,,1.80078
2017-09-01T23:59:30Z,12.99328,11.40535,0.0,78.12394,0,1156,3.9396,14.27598,,43690,0.0,1008.58,0.0,8.979999,1006.78,0,,11.41,279.8165,,,1.80078
2017-09-02T00:14:29Z,12.98776,11.06672,0.0,79.24146,0,1156,5.6056,14.13365,,43690,0.0,1009.231,0.0,8.55,1007.43,0,,11.2,285.3705,,,1.80078
2017-09-02T00:29:32Z,12.98776,10.89826,0.0,78.15914,0,1156,3.1948,14.01391,,43690,0.0,1009.231,0.0,7.154,1007.43,0,,11.03,284.8223,,,1.80078
2017-09-02T00:44:30Z,12.98225,10.79756,0.0,78.80394,0,1156,6.389599,13.96647,,43690,0.0,1009.231,0.0,8.78,1007.43,0,,11.0,295.4789,,,1.80078
2017-09-02T00:59:34Z,12.99973,10.79773,0.0,80.46361,0,1156,7.3304,13.80154,,43690,0.0,1009.231,0.0,7.036,1007.43,0,,10.87,313.5852,,,1.80078
2017-09-02T01:14:33Z,13.00081,10.90496,0.0,81.01442,0,1156,8.134,13.6818,,43690,0.0,1009.588,0.0,8.17,1007.787,0,,11.01,301.7888,,,1.80078
2017-09-02T01:29:32Z,13.00149,10.83846,0.0,82.50666,0,1156,4.1552,13.58917,,43690,0.0,1009.588,0.0,7.389001,1007.787,0,,10.84,308.289,,,1.80078
2017-09-02T01:44:31Z,13.00201,10.84281,0.0,81.32817,0,1156,5.9976,13.49428,,43690,0.0,1009.588,0.0,7.487001,1007.787,0,,10.88,319.6187,,,1.80078
2017-09-02T01:59:34Z,13.00284,10.50726,0.0,83.1964,0,1156,2.94,13.32936,,43690,0.0,1009.588,0.0,6.213,1007.787,0,,10.57,290.9218,,,1.80078
2017-09-02T02:14:32Z,13.0087,10.27098,0.0,83.09617,0,1156,4.2532,12.92947,,43690,0.0,1009.721,0.0,5.312,1007.92,0,,10.41,307.7386,,,1.80078
2017-09-02T02:29:34Z,13.01974,10.50811,0.0,83.73981,0,1156,4.6452,12.55669,,43690,0.0,1009.721,0.0,5.821,1007.92,0,,10.61,318.6581,,,1.80078
2017-09-02T02:44:37Z,13.01422,10.84687,0.0,82.45254,0,1156,5.3704,12.39402,,43690,0.0,1009.721,0.0,7.232,1007.92,0,,10.98,317.239,,,1.80078
2017-09-02T02:59:35Z,13.01422,10.91462,0.0,81.02978,0,1156,3.136,12.3014,,43690,0.0,1009.721,0.0,8.09,1007.92,0,,10.91,294.6306,,,1.80078
2017-09-02T03:14:39Z,13.01422,10.77912,0.0,82.62193,0,1156,7.6048,12.20877,,43690,0.0,1010.703,0.0,7.428001,1008.902,0,,10.98,306.921,,,1.80078
2017-09-02T03:29:37Z,13.00871,11.355,0.0,81.74117,0,1156,5.1548,12.46406,,43690,0.0,1010.703,0.0,6.88,1008.902,0,,11.42,281.8834,,,1.80078
2017-09-02T03:44:35Z,12.99216,11.42275,0.0,81.16528,0,1156,4.9,12.88428,,43690,0.0,1010.703,0.0,7.722001,1008.902,0,,11.49,306.945,,,1.80078
2017-09-02T03:59:38Z,12.98112,11.45662,0.0,80.89428,0,1156,3.8612,13.3045,,43690,0.0,1010.703,0.0,6.135,1008.902,0,,11.49,280.9213,,,1.80078
2017-09-02T04:14:41Z,12.98068,11.35186,0.0,80.14414,0,1156,4.9588,13.61176,,43690,0.0,1011.516,0.0,7.076,1009.715,0,,11.39,321.0196,,,1.80078
2017-09-02T04:29:38Z,12.97356,11.58373,0.0,80.81338,0,1156,6.8992,13.82413,,43690,0.0,1011.516,0.0,10.33,1009.715,0,,11.58,282.3185,,,1.80078
2017-09-02T04:44:41Z,12.97788,11.61199,0.0,81.85446,0,1156,6.781599,13.96647,,43690,0.0,1011.516,0.0,8.78,1009.715,0,,11.65,294.9595,,,1.80078
2017-09-02T04:59:39Z,12.97129,11.47357,0.0,81.00315,0,1156,6.7032,14.1088,,43690,0.0,1011.516,0.0,8.04,1009.715,0,,11.61,313.8889,,,1.80078
2017-09-02T05:14:42Z,12.97122,11.37151,0.0,80.39286,0,1156,8.212401,14.1585,,43690,0.0,1011.836,0.0,10.17,1010.035,0,,11.54,284.3127,,,1.80078
2017-09-02T05:29:41Z,12.97674,11.37151,0.0,80.96854,0,1156,8.623999,14.1811,,43690,0.0,1011.836,0.0,10.66,1010.035,0,,11.47,294.6513,,,1.80078
2017-09-02T05:44:44Z,12.97123,11.26992,0.0,79.78331,0,1156,4.704,14.1811,,43690,0.0,1011.836,0.0,7.664001,1010.035,0,,11.41,305.7594,,,1.80078
2017-09-02T05:59:41Z,12.97122,10.96515,0.0,78.05625,0,1156,3.0576,14.1088,,43690,0.0,1011.836,0.0,5.9,1010.035,0,,11.07,300.8786,,,1.80078
2017-09-02T06:14:43Z,12.98274,10.56108,0.0,78.9403,0,1156,4.4688,13.80154,,43690,0.0,1011.669,0.0,8.57,1009.868,0,,10.63,294.5686,,,1.80078
2017-09-02T06:29:45Z,12.99019,10.22855,0.0,80.1015,0,1156,3.8024,13.42424,,43690,0.0,1011.669,0.0,5.508,1009.868,0,,10.26,291.4302,,,1.80078
2017-09-02T06:44:42Z,13.00848,10.23649,0.0,80.24966,0,1156,7.565599,12.92947,,43690,0.0,1011.669,0.0,6.135,1009.868,0,,10.17,312.3528,,,1.80078
2017-09-02T06:59:45Z,13.01422,10.10161,0.0,79.7764,0,1156,4.9784,12.44147,,43690,0.0,1011.669,0.0,6.625,1009.868,0,,10.27,308.821,,,1.80078
2017-09-02T07:14:48Z,13.01422,9.966106,0.0,80.14902,0,1156,3.6848,12.09355,,43690,0.0,1012.98,0.0,6.938,1011.179,0,,10.07,310.9135,,,1.80078
2017-09-02T07:29:46Z,13.01422,9.661232,0.0,81.57178,0,1156,5.488,11.84051,,43690,0.0,1012.98,0.0,5.057,1011.179,0,,9.63,307.3779,,,1.80078
2017-09-02T07:44:49Z,13.02526,9.661911,0.0,80.28563,0,1156,4.0376,11.54229,,43690,0.0,1012.98,0.0,6.527,1011.179,0,,9.7,283.0658,,,1.80078
2017-09-02T07:59:46Z,13.02638,9.662159,0.0,80.62478,0,1156,2.9792,11.31184,,43690,0.0,1012.98,0.0,6.292,1011.179,0,,9.729999,312.5789,,,1.80078
2017-09-02T08:14:49Z,13.03676,9.527386,0.0,80.62598,0,1156,2.1756,11.15144,,43690,0.0,1012.664,0.0,5.86,1010.863,0,,9.729999,302.674,,,1.80078
2017-09-02T08:29:51Z,13.03667,9.256252,0.0,82.18409,0,1156,2.9792,10.99329,,43690,0.0,1012.664,0.0,4.057,1010.863,0,,9.32,287.5203,,,1.80078
2017-09-02T08:44:48Z,13.04345,8.852806,0.0,84.28972,0,1156,3.1948,10.7877,,43690,0.0,1012.664,0.0,3.587,1010.863,0,,8.95,289.1981,,,1.80078
2017-09-02T08:59:51Z,13.05114,8.998913,0.0,84.07075,0,1156,4.998,10.51659,,43690,0.0,1012.664,0.0,6.782001,1010.863,0,,9.13,288.587,,,1.80078
2017-09-02T09:14:48Z,13.05173,9.237518,0.0,83.1582,0,1156,5.1352,10.40362,,43690,0.0,1014.28,0.0,5.194,1012.479,0,,9.37,287.6328,,,1.80078
2017-09-02T09:29:52Z,13.03519,9.339203,0.001928393,80.17621,0,1156,4.2728,10.42622,,43690,0.1349875,1014.28,9.641963e-06,5.429,1012.479,0,,9.269999,316.5527,,,1.80078
2017-09-02T09:44:50Z,13.02968,9.50864,0.007231618,79.80345,0,1156,4.7236,10.56177,,43690,0.5062132,1014.28,3.615809e-05,6.115,1012.479,0,,9.61,301.4432,,,1.80078
2017-09-02T09:59:53Z,13.01864,9.16977,0.0168733,81.02338,0,1156,3.3908,10.62955,,43690,1.181131,1014.28,8.436652e-05,6.409,1012.479,0,,9.309999,295.0433,,,1.80078
2017-09-02T10:14:50Z,13.02968,9.50753,0.03808544,78.95451,0,1156,3.6456,10.74251,,43690,2.665981,1014.779,0.0001904272,6.742,1012.979,0,,9.58,285.5093,,,1.80078
2017-09-02T10:29:54Z,13.0174,10.01452,0.1335446,79.46074,0,1156,4.6452,10.92551,,43690,9.348121,1014.779,0.0006677229,5.331,1012.979,0,,10.01,315.6231,,,1.80078
2017-09-02T10:44:51Z,13.0038,10.17161,0.07471342,79.77998,0,1156,4.6256,11.47225,,43690,5.229939,1014.779,0.0003735671,7.448001,1012.979,0,,10.31,250.9644,,,1.80078
2017-09-02T10:59:55Z,12.998,10.16996,0.0853163,78.4562,0,1156,5.096,12.07095,,43690,5.972141,1014.779,0.0004265815,5.508,1012.979,0,,10.31,304.7841,,,1.80078
2017-09-02T11:14:54Z,12.99217,10.54203,0.2858336,75.30491,0,1156,3.0968,12.51151,,43690,20.00835,1015.099,0.001429168,5.586,1013.299,0,,10.68,297.012,,,1.80078
2017-09-02T11:29:53Z,12.96458,12.06642,0.3426887,74.08539,0,1156,3.5084,13.46943,,43690,23.98821,1015.099,0.001713444,6.919,1013.299,0,,12.0,283.2064,,,1.80078
2017-09-02T11:44:57Z,12.9336,11.57912,0.381655,73.79573,0,1156,4.7236,14.7075,,43690,26.71585,1015.099,0.001908275,5.39,1013.299,0,,11.82,289.6271,,,1.80078
2017-09-02T11:59:55Z,12.92713,12.08277,0.2510445,69.96294,0,1156,5.88,15.65187,,43690,17.57311,1015.099,0.001255222,4.488,1013.299,0,,12.52,288.7854,,,1.80078
2017-09-02T12:14:58Z,12.9271,11.5747,0.2307801,70.43687,0,1156,2.45,16.11727,,43690,16.1546,1016.303,0.0011539,3.234,1014.502,0,,11.51,313.9582,,,1.80078
2017-09-02T12:29:57Z,12.93187,11.3319,0.2269272,71.30935,0,1156,3.1556,16.04497,,43690,15.88491,1016.303,0.001134636,4.939,1014.502,0,,11.23,285.507,,,1.80078
2017-09-02T12:45:00Z,12.94334,11.57357,0.2466785,69.31786,0,1156,3.528,15.97042,,43690,17.26749,1016.303,0.001233392,5.664,1014.502,0,,11.81,294.717,,,1.80078
2017-09-02T12:59:58Z,12.94872,12.0816,0.3627919,69.75819,0,1156,2.4108,16.06757,,43690,25.39543,1016.303,0.00181396,6.782001,1014.502,0,,11.95,272.4779,,,1.80078
2017-09-02T13:14:58Z,12.94115,12.34149,0.2307751,69.40495,0,1156,4.802,16.38838,,43690,16.15426,1016.698,0.001153875,5.272,1014.897,0,,12.41,307.1311,,,1.80078
2017-09-02T13:30:02Z,12.9283,11.62521,0.1546459,69.80406,0,1156,3.8416,16.51264,,43690,10.82521,1016.698,0.0007732292,4.234,1014.897,0,,11.66,289.9864,,,1.80078
2017-09-02T13:45:01Z,12.92851,11.65878,0.1671701,68.58498,0,1156,2.4696,16.41324,,43690,11.70191,1016.698,0.0008358507,4.743,1014.897,0,,11.76,329.3785,,,1.80078
2017-09-02T14:00:03Z,12.94026,12.06716,0.2837723,69.50187,0,1156,2.94,16.26638,,43690,19.86406,1017.367,0.001418862,5.233,1015.567,0,,12.07,307.375,,,1.80078
2017-09-02T14:15:01Z,12.93414,12.74538,0.292434,69.06327,0,1156,3.6456,16.48779,,43690,20.47038,1017.367,0.00146217,5.194,1015.567,0,,12.75,290.5319,,,1.80078
2017-09-02T14:30:05Z,12.92275,13.0807,0.470684,64.59054,0,1156,4.2924,16.88542,,43690,32.94788,1017.367,0.00235342,5.9,1015.567,0,,13.11,288.6155,,,1.80078
2017-09-02T14:45:04Z,12.9117,13.01288,0.2519238,68.44957,0,1156,3.7044,17.48864,,43690,17.63466,1017.367,0.001259619,6.233,1015.567,0,,13.01,311.4242,,,1.80078
2017-09-02T15:00:03Z,12.90067,12.91132,0.243734,67.33244,0,1156,4.1552,17.76652,,43690,17.06138,1017.183,0.00121867,5.429,1015.383,0,,13.11,284.7451,,,1.80078
2017-09-02T15:15:07Z,12.89516,12.84361,0.234582,65.57212,0,1156,4.704,17.89304,,43690,16.42074,1017.183,0.00117291,5.723,1015.383,0,,12.95,297.1473,,,1.80078